Location: La Pernelle
(49.6188°N, 1.2999°W)
Time: 10:17:58
(UTC+00:00)

NOSS 3-2 (A) - Pass Details

Date: 12 June 2021
Orbit: 774 x 1433 km, 63.4° (Epoch: 17 July)

Event Time Altitude Azimuth Distance (km) Brightness Sun altitude
Rises 22:20:26 0° 241° (WSW) 3,371 6.3 -13.5°
Reaches altitude 10° 22:22:49 10° 246° (WSW) 2,500 5.7 -13.7°
Maximum altitude 22:28:28 53° 323° (NW) 1,163 4.3 -14.1°
Drops below altitude 10° 22:35:05 10° 40° (NE) 2,919 6.4 -14.5°
Sets 22:38:04 0° 45° (NE) 3,986 7.0 -14.6°
